Temperature
11 10 10 10 9 9 9 9 9 9 9 9 9 9 9 9 8 8 8 8 8 8 8 7 7 7 7 7 7 7 7 7 6 6 6 6 6 6 6 6 6 6 6
11 10 10 10 9 9 9 9 9 9 9 9 9 9 9 8 8 8 8 8 8 8 8 7 7 7 7 6 6 6 6 6 6 6 6 5 5 5 5 5 5 6 6
11 10 10 10 9 9 9 9 9 9 9 9 9 9 9 8 8 8 8 8 8 8 8 8 7 7 7 6 6 6 6 6 5 5 5 5 5 5 5 5 5 5 5
11 10 10 10 9 9 9 9 9 9 9 9 9 9 9 9 8 8 8 8 8 7 8 8 8 7 7 7 6 6 6 5 5 5 5 5 5 4 4 4 4 4 4
11 10 10 10 9 9 9 9 9 9 9 9 9 9 9 9 8 8 8 8 8 8 7 8 7 7 7 7 7 6 6 5 5 5 5 4 4 4 4 4 4 4 4
11 10 10 10 9 9 9 9 9 9 9 9 9 9 9 9 8 8 8 8 8 8 7 7 7 7 7 7 7 6 6 5 5 4 4 4 4 4 4 4 4 4 4
11 10 10 10 9 9 9 9 9 9 9 8 8 8 9 9 8 8 8 8 8 8 8 7 7 7 7 7 7 6 6 5 5 4 4 4 4 3 3 3 3 3 3
11 11 10 10 10 9 9 9 9 9 9 9 8 8 8 8 9 9 8 8 8 8 7 7 7 7 7 6 6 6 6 6 5 4 4 4 3 3 3 3 3 3 3
11 11 10 10 10 9 9 9 9 9 9 9 8 8 8 9 8 8 8 8 8 7 7 7 7 7 7 6 6 6 6 6 5 5 4 4 3 3 3 3 2 2 2
11 11 10 10 10 10 9 9 9 9 9 9 9 8 8 8 8 8 8 8 8 8 7 7 7 7 6 6 6 6 6 5 5 5 4 4 3 3 2 2 2 2 2
11 11 10 10 10 10 10 9 9 9 9 9 9 9 8 8 8 8 8 8 8 8 7 7 7 6 6 6 6 5 5 5 5 4 4 4 3 3 2 2 2 1 1
11 11 11 10 10 10 10 10 9 9 9 9 9 9 9 8 8 8 8 7 7 7 8 7 7 6 6 6 5 5 5 4 4 4 4 3 3 3 3 2 1 1 1
12 12 11 11 10 10 10 10 9 9 9 9 9 9 9 8 8 8 8 7 7 7 7 7 7 6 6 5 5 5 4 4 4 3 3 3 3 3 2 2 2 1 1
13 13 12 11 11 10 10 10 9 9 9 9 9 9 9 9 8 8 8 7 6 6 7 7 6 6 5 5 4 4 4 3 3 3 3 2 2 2 2 1 1 1 0
12 12 12 11 11 10 10 10 9 9 9 9 9 9 9 8 8 8 8 7 6 6 6 6 6 5 5 4 4 3 3 3 2 2 2 2 2 1 1 1 0 -0 -0
12 12 11 11 11 10 10 10 10 9 9 9 9 9 8 8 8 8 7 7 6 6 5 5 5 5 4 4 3 3 2 2 2 2 2 1 1 1 0 -0 -0 -1 -1
12 11 11 11 11 10 10 10 9 9 9 9 9 9 8 8 8 8 7 7 6 6 5 5 4 4 4 3 3 2 2 2 1 1 1 1 0 -0 -1 -1 -1 -2 -2
11 11 11 11 10 10 10 10 9 9 9 9 9 8 8 8 8 7 7 6 6 5 5 4 4 3 3 2 2 2 1 1 1 0 0 -0 -0 -1 -1 -1 -2 -2 -3
11 11 11 10 10 10 10 10 9 9 9 9 8 8 8 8 7 7 7 6 6 5 4 3 3 3 2 2 1 1 1 0 -0 -0 -1 -1 -1 -2 -2 -2 -3 -3 -3
11 10 10 10 10 10 9 9 9 9 9 8 8 8 7 7 7 7 6 5 5 4 4 3 2 2 1 1 0 -0 -1 -1 -1 -1 -2 -2 -2 -3 -3 -3 -3 -4 -4
10 10 10 10 9 9 9 9 9 8 8 8 8 7 7 7 6 6 5 5 4 4 3 2 2 1 0 -0 -1 -1 -2 -2 -2 -3 -3 -3 -3 -4 -4 -4 -4 -4 -5
10 10 9 9 9 9 9 9 8 8 8 8 7 7 7 6 6 5 5 4 4 3 2 1 1 0 -0 -1 -2 -2 -3 -3 -4 -4 -4 -4 -5 -5 -5 -5 -5 -5 -5
10 9 9 9 9 9 8 8 8 8 7 7 7 7 6 6 5 4 4 3 3 2 2 1 -0 -0 -1 -2 -2 -3 -3 -4 -4 -5 -5 -5 -5 -5 -5 -5 -5 -6 -6
9 9 9 8 8 8 8 8 7 7 7 6 6 6 5 5 4 4 3 3 2 2 1 0 -1 -1 -2 -2 -3 -4 -4 -5 -5 -5 -6 -6 -6 -6 -6 -6 -6 -6 -6
9 8 8 8 8 8 8 7 7 7 6 6 6 5 5 4 4 3 2 2 1 1 -0 -1 -1 -2 -2 -3 -4 -4 -5 -5 -6 -6 -6 -7 -7 -7 -7 -7 -7 -7 -7
8 8 8 7 7 7 7 7 6 6 5 5 5 4 4 3 3 2 2 1 0 -0 -1 -2 -2 -2 -3 -4 -4 -5 -5 -6 -7 -7 -7 -8 -8 -8 -8 -8 -8 -8 -8
Wind_Speed
9 10 8 8 8 7 7 5 5 4 4 3 2 1 1 1 1 1 3 6 5 5 5 6 7 8 8 9 9 9 9 10 10 10 11 11 12 12 12 12 12 13 13
11 10 9 8 8 7 6 5 5 4 3 2 2 1 1 1 1 1 2 4 6 6 6 6 7 7 8 8 8 8 8 9 9 10 10 11 11 11 12 12 12 13 13
13 11 9 8 8 8 7 6 5 4 3 2 2 1 1 0 1 1 1 1 3 6 6 6 6 6 7 7 7 7 7 8 9 9 10 10 11 11 12 12 12 13 13
15 12 9 9 9 8 7 6 5 4 3 3 2 1 1 1 1 1 2 2 1 2 4 6 5 6 6 6 7 7 7 7 8 9 9 10 10 11 11 12 12 13 13
16 13 10 10 11 9 7 6 5 5 4 3 2 1 1 1 2 2 2 2 2 1 1 4 4 5 5 6 6 6 6 7 7 8 9 9 10 11 11 12 12 13 13
18 15 11 12 12 9 8 7 7 5 4 3 3 2 1 1 2 2 3 3 3 2 1 0 0 2 4 4 5 6 6 7 7 8 9 10 10 11 11 12 13 13 14
19 16 11 12 11 10 10 9 7 7 5 4 3 2 2 3 3 3 3 3 3 3 2 2 2 1 0 1 3 5 6 7 8 9 9 10 11 11 12 12 13 14 14
19 17 15 12 12 10 11 11 9 6 5 5 4 3 3 4 4 3 3 3 4 4 4 3 3 2 2 2 1 3 6 7 8 9 10 11 12 12 13 13 14 14 15
20 19 18 15 13 13 11 12 12 10 7 6 6 4 3 3 2 4 4 4 4 4 4 4 4 4 4 3 3 2 4 7 9 10 11 12 12 13 14 14 15 15 15
20 20 19 17 15 13 13 12 12 10 9 7 5 5 4 2 3 2 4 5 5 5 5 4 5 5 5 4 4 3 5 7 9 11 12 13 13 14 15 15 16 16 17
18 19 19 17 15 14 14 13 12 12 9 9 6 5 5 4 5 5 4 4 5 5 5 5 5 6 6 6 5 4 5 8 10 11 12 13 14 15 16 17 17 18 18
15 18 18 17 16 14 14 13 13 14 11 10 8 7 6 5 5 6 6 5 5 4 5 5 6 6 6 6 6 5 7 9 10 12 13 14 15 16 17 18 18 19 19
14 18 18 17 16 15 14 13 13 13 13 12 11 9 8 7 5 5 6 5 5 4 4 5 6 6 6 7 6 6 9 10 11 12 14 15 16 17 18 19 19 20 20
16 18 19 18 17 16 14 13 11 12 11 12 11 10 7 7 6 5 5 4 5 5 6 6 4 6 6 7 6 7 9 10 12 13 15 16 17 18 19 19 20 20 21
14 18 18 18 17 16 15 13 11 12 11 11 11 10 8 6 6 6 5 5 4 5 6 5 4 5 6 7 6 9 11 11 13 15 16 17 18 19 20 20 21 21 22
15 16 17 17 16 15 15 14 11 11 11 10 8 10 9 7 6 5 5 5 5 6 5 4 5 5 6 7 8 10 11 12 15 16 17 18 19 20 21 21 21 22 23
16 16 16 16 16 15 15 13 13 12 12 11 10 10 10 8 6 6 6 6 6 6 7 6 5 5 6 7 7 9 11 12 12 14 16 18 19 20 21 21 22 22 23
15 15 15 15 15 14 14 14 13 13 13 12 11 11 10 8 9 7 6 7 6 7 6 7 6 5 7 7 8 9 10 11 12 14 17 19 20 20 21 21 21 22 22
14 14 14 14 14 14 14 13 13 12 12 12 11 11 10 10 10 7 7 7 5 5 5 6 6 5 6 6 8 9 10 10 12 13 16 17 18 19 21 21 22 22 21
14 14 13 13 13 12 12 11 11 11 11 10 9 9 9 10 10 8 7 7 5 5 5 5 6 6 6 6 7 8 9 9 9 11 13 15 16 18 20 20 21 21 20
12 12 12 11 11 10 10 11 10 10 10 9 8 8 8 8 8 7 6 6 6 5 5 5 6 6 7 6 7 7 9 10 11 9 10 10 12 13 15 17 18 18 19
12 12 11 11 11 8 11 14 11 10 9 9 9 8 7 7 8 9 8 8 7 6 6 5 6 7 9 8 8 8 9 10 10 6 9 11 11 12 12 14 16 19 21
12 11 11 11 10 10 13 15 13 10 9 8 8 7 6 6 8 6 7 8 8 7 6 6 7 9 9 8 9 10 10 11 11 10 11 12 11 12 12 14 18 19 20
11 10 10 10 9 10 14 14 13 9 7 7 7 7 7 6 6 6 6 5 6 6 6 7 7 8 8 8 8 9 11 11 11 10 9 10 11 11 11 13 16 18 18
10 9 9 10 10 10 13 14 12 8 6 6 6 5 6 6 7 7 5 5 5 5 5 8 9 9 9 9 9 7 7 8 10 10 7 7 10 12 12 11 12 14 16
10 9 9 8 9 9 12 13 12 7 6 5 5 4 5 5 6 7 5 5 5 5 4 4 6 6 7 7 8 7 6 8 9 8 5 6 9 9 8 7 8 12 13
Wind_Direction
178 176 176 174 176 171 172 174 172 160 160 150 145 155 106 97 76 67 82 60 36 37 42 46 43 41 43 43 40 35 30 28 25 21 17 14 11 8 4 1 359 357 355
182 182 180 181 181 180 179 181 177 171 166 161 155 149 130 128 108 96 85 91 67 51 47 44 42 40 38 34 34 31 26 23 21 16 12 9 7 3 1 360 360 358 355
187 186 185 185 185 182 182 184 175 177 168 166 170 154 145 137 152 130 121 102 95 75 58 46 41 36 31 26 25 25 21 18 15 11 7 5 2 359 357 356 355 353 352
191 189 189 190 186 183 186 186 184 185 182 183 178 159 175 172 184 152 161 155 122 107 81 57 44 34 26 23 19 18 15 10 7 4 2 0 356 353 351 350 349 348 347
194 194 194 191 186 187 191 187 193 192 187 182 175 171 190 198 177 190 182 166 145 127 91 88 65 44 28 19 12 7 4 2 360 358 356 352 348 346 344 344 344 343 341
197 197 196 195 190 191 192 191 189 188 192 179 166 176 191 197 200 200 192 184 175 170 184 177 141 71 42 17 5 357 354 352 350 348 346 342 339 338 337 337 337 336 335
197 198 196 196 196 198 196 194 188 184 188 181 186 194 193 197 204 200 206 204 191 194 206 222 245 268 324 19 359 348 344 342 339 338 336 334 331 331 330 330 329 329 330
199 199 199 197 197 199 198 195 192 191 186 194 210 214 213 201 199 208 208 214 213 207 214 225 231 243 267 282 356 337 334 332 331 331 329 327 325 324 324 324 324 325 324
201 200 202 200 199 201 201 199 196 196 194 195 214 223 233 234 181 191 206 214 216 221 223 225 233 237 243 254 269 288 320 321 321 321 321 320 320 319 319 319 319 319 319
203 202 202 203 201 203 204 202 200 201 196 193 199 226 247 262 232 214 203 212 221 232 233 227 231 232 235 242 253 284 307 311 312 314 314 314 315 314 314 314 314 315 314
202 202 202 203 203 204 205 200 197 200 201 202 194 193 208 222 237 243 244 221 223 227 231 237 235 233 234 241 250 268 295 301 304 307 308 309 310 310 309 309 310 310 310
200 202 202 203 204 203 203 201 199 201 203 205 201 195 195 201 211 222 242 246 244 230 232 236 234 231 234 241 246 257 282 291 297 301 303 304 305 305 305 305 306 306 306
198 201 200 203 203 203 201 198 199 202 204 204 205 207 211 216 211 217 235 249 252 244 240 238 230 231 233 242 249 252 275 283 290 295 298 300 301 301 301 302 303 303 303
200 200 200 202 203 201 198 196 198 201 203 206 209 206 209 209 204 207 218 231 247 249 243 244 229 233 234 243 259 266 276 278 285 290 294 296 298 298 299 299 299 300 301
199 198 198 200 201 198 195 192 198 198 199 204 205 204 206 205 202 206 208 213 229 254 261 245 235 230 233 250 259 269 278 282 285 288 290 292 294 295 295 296 296 297 298
195 194 196 198 198 197 194 193 197 197 196 199 198 200 204 203 199 198 201 210 223 238 257 258 245 245 242 255 263 272 279 284 280 282 286 290 292 293 293 294 295 297 297
192 192 193 194 195 195 193 194 196 192 196 196 194 199 202 195 195 198 199 206 217 225 246 263 259 259 261 265 269 273 280 283 284 282 286 290 292 293 293 294 296 296 297
191 191 191 191 192 192 192 193 194 193 196 196 194 195 198 192 200 199 202 210 217 223 240 261 267 264 267 274 279 282 284 284 285 287 287 289 290 291 293 294 295 297 298
186 187 187 188 189 189 191 192 192 193 197 197 193 194 196 194 202 202 206 213 217 223 236 254 269 273 273 275 284 285 285 285 287 288 288 288 288 291 292 293 295 297 298
182 182 184 185 185 185 187 187 187 189 192 191 191 194 194 198 204 202 204 211 211 217 230 247 264 273 276 282 285 289 292 292 293 293 291 291 292 292 291 293 295 296 297
177 177 177 177 178 178 182 179 179 181 183 183 185 191 194 198 204 201 201 205 204 215 228 246 262 274 278 284 285 291 293 298 296 294 294 294 296 295 296 294 294 296 299
169 168 171 171 173 175 173 174 175 176 180 183 185 188 190 194 203 205 208 209 207 216 229 245 262 270 280 287 290 292 294 298 300 302 300 298 298 296 296 295 298 302 302
162 165 166 167 171 170 167 172 173 173 178 184 184 184 186 193 198 202 209 215 221 228 237 253 263 273 286 292 294 291 290 291 292 301 302 296 298 297 299 298 301 302 303
160 161 162 164 163 163 166 167 167 171 171 176 181 185 188 188 191 194 201 215 230 235 243 256 269 280 288 294 292 290 293 293 293 293 293 294 301 302 306 302 301 303 305
153 153 156 158 159 158 161 162 162 163 162 167 172 177 185 190 184 191 201 218 238 251 250 261 278 287 292 293 296 295 294 295 297 300 299 294 304 309 305 299 301 307 306
144 141 141 150 152 152 154 158 161 159 160 160 161 170 182 191 183 191 206 221 242 262 267 270 275 281 287 289 290 287 290 293 300 302 309 307 306 315 307 301 309 311 309
Height
1537 1539 1541 1542 1544 1545 1546 1547 1548 1549 1549 1549 1549 1550 1550 1550 1550 1549 1548 1547 1547 1546 1546 1545 1544 1543 1542 1541 1539 1538 1537 1535 1534 1532 1531 1529 1528 1526 1525 1523 1522 1520 1519
1536 1537 1539 1541 1543 1544 1545 1546 1547 1548 1549 1549 1549 1549 1549 1549 1549 1549 1548 1547 1546 1546 1545 1545 1544 1543 1542 1541 1539 1538 1536 1535 1533 1532 1530 1529 1527 1525 1524 1522 1521 1519 1518
1534 1536 1538 1539 1541 1542 1544 1545 1546 1547 1548 1548 1548 1549 1549 1548 1548 1548 1547 1547 1546 1545 1545 1544 1543 1542 1541 1540 1539 1537 1536 1534 1533 1531 1530 1528 1526 1525 1523 1521 1520 1518 1516
1531 1534 1535 1537 1539 1541 1542 1544 1545 1546 1547 1547 1548 1548 1547 1547 1547 1547 1546 1546 1546 1545 1544 1543 1542 1541 1540 1539 1538 1537 1535 1534 1532 1530 1529 1527 1525 1524 1522 1520 1519 1517 1515
1529 1531 1533 1535 1537 1538 1540 1542 1543 1545 1546 1546 1546 1546 1546 1546 1546 1545 1545 1545 1544 1544 1543 1542 1541 1540 1539 1538 1537 1535 1534 1533 1531 1529 1528 1526 1524 1522 1521 1519 1517 1515 1513
1525 1528 1530 1532 1534 1536 1538 1540 1541 1542 1544 1544 1544 1545 1545 1544 1544 1544 1544 1544 1543 1542 1542 1541 1540 1539 1538 1536 1535 1534 1533 1531 1530 1528 1526 1524 1522 1521 1519 1517 1515 1513 1511
1521 1524 1526 1529 1531 1533 1535 1538 1539 1540 1541 1542 1543 1543 1543 1543 1542 1542 1542 1542 1541 1541 1540 1540 1539 1537 1536 1535 1533 1532 1531 1529 1528 1526 1524 1522 1520 1519 1517 1515 1513 1511 1509
1516 1519 1522 1525 1528 1530 1532 1534 1536 1538 1539 1540 1542 1543 1543 1543 1540 1540 1540 1540 1540 1539 1538 1538 1537 1536 1534 1533 1531 1530 1529 1527 1525 1524 1522 1520 1518 1516 1514 1512 1510 1508 1506
1511 1514 1518 1521 1524 1526 1528 1531 1533 1535 1536 1538 1539 1541 1541 1541 1540 1539 1538 1538 1537 1537 1536 1535 1534 1533 1532 1531 1529 1527 1526 1524 1523 1521 1519 1517 1515 1513 1511 1509 1507 1504 1502
1505 1509 1512 1516 1519 1522 1524 1527 1529 1531 1533 1534 1535 1536 1538 1538 1539 1538 1537 1535 1535 1534 1534 1533 1532 1531 1529 1528 1526 1525 1523 1521 1519 1517 1515 1513 1511 1509 1507 1505 1503 1500 1498
1498 1503 1507 1511 1514 1517 1520 1523 1525 1527 1529 1531 1532 1533 1534 1534 1535 1536 1535 1534 1533 1532 1531 1530 1529 1528 1526 1525 1523 1521 1520 1518 1516 1514 1511 1509 1507 1505 1502 1500 1498 1495 1493
1492 1496 1501 1505 1508 1512 1515 1518 1521 1523 1525 1527 1528 1529 1530 1531 1531 1532 1532 1531 1530 1529 1528 1527 1525 1524 1523 1521 1519 1518 1516 1514 1512 1509 1507 1505 1502 1500 1497 1495 1493 1490 1488
1485 1489 1494 1498 1502 1506 1510 1513 1516 1518 1520 1522 1524 1525 1526 1527 1527 1528 1528 1528 1527 1525 1524 1523 1522 1521 1519 1517 1515 1513 1511 1509 1507 1505 1502 1500 1497 1494 1492 1489 1487 1484 1482
1479 1483 1488 1492 1497 1501 1504 1508 1511 1513 1516 1518 1519 1521 1522 1522 1523 1524 1524 1524 1523 1522 1521 1520 1518 1517 1515 1513 1511 1509 1507 1505 1502 1500 1497 1494 1492 1489 1486 1484 1481 1478 1475
1474 1478 1482 1487 1491 1495 1499 1503 1506 1508 1511 1513 1515 1516 1517 1518 1519 1519 1520 1520 1520 1519 1517 1516 1514 1512 1511 1509 1506 1504 1502 1499 1497 1494 1492 1489 1486 1483 1480 1477 1474 1472 1469
1469 1473 1477 1482 1486 1490 1494 1497 1501 1503 1506 1508 1510 1511 1512 1513 1514 1515 1515 1515 1515 1515 1513 1511 1510 1508 1506 1504 1502 1499 1497 1494 1491 1489 1486 1483 1480 1477 1474 1471 1468 1465 1462
1463 1468 1472 1476 1480 1484 1488 1492 1495 1498 1501 1503 1504 1506 1507 1508 1509 1510 1510 1510 1510 1509 1508 1506 1505 1504 1502 1499 1497 1494 1492 1489 1486 1483 1480 1476 1473 1470 1467 1464 1461 1458 1455
1458 1463 1467 1471 1475 1479 1483 1487 1490 1493 1495 1497 1499 1501 1502 1503 1504 1505 1505 1505 1505 1504 1503 1501 1500 1498 1496 1494 1492 1489 1486 1483 1480 1477 1473 1470 1467 1463 1460 1457 1454 1451 1447
1453 1458 1462 1466 1471 1474 1478 1482 1485 1488 1490 1492 1494 1496 1497 1498 1499 1500 1500 1500 1499 1499 1498 1496 1495 1493 1491 1489 1486 1483 1480 1477 1474 1470 1467 1463 1460 1457 1453 1450 1447 1443 1440
1449 1453 1458 1462 1466 1470 1473 1477 1480 1483 1485 1488 1489 1491 1492 1493 1494 1494 1495 1494 1494 1494 1493 1491 1489 1488 1486 1483 1480 1477 1474 1471 1468 1464 1460 1457 1454 1450 1447 1443 1440 1436 1433
1445 1450 1454 1458 1462 1465 1469 1472 1475 1478 1480 1483 1484 1486 1487 1488 1489 1489 1490 1489 1489 1488 1487 1486 1484 1482 1480 1478 1475 1472 1468 1465 1461 1458 1454 1451 1447 1444 1440 1437 1433 1430 1426
1441 1446 1450 1454 1458 1461 1465 1468 1471 1474 1476 1478 1479 1481 1482 1483 1484 1484 1485 1484 1484 1484 1482 1481 1479 1478 1475 1473 1470 1467 1464 1460 1456 1454 1449 1445 1442 1438 1434 1431 1428 1424 1420
1437 1442 1446 1450 1454 1457 1461 1464 1467 1470 1472 1473 1475 1476 1477 1478 1479 1479 1479 1479 1479 1478 1478 1477 1475 1473 1470 1468 1465 1462 1459 1455 1451 1448 1444 1439 1437 1432 1429 1425 1422 1418 1414
1434 1439 1443 1447 1450 1454 1457 1461 1463 1466 1467 1469 1471 1472 1473 1473 1474 1474 1474 1474 1474 1473 1472 1471 1469 1467 1465 1462 1460 1457 1454 1450 1446 1443 1440 1434 1431 1428 1424 1420 1416 1413 1409
1431 1436 1440 1444 1447 1451 1454 1457 1460 1462 1463 1465 1466 1467 1468 1469 1469 1470 1470 1469 1469 1468 1467 1465 1464 1461 1459 1457 1454 1451 1448 1445 1440 1438 1435 1431 1426 1422 1418 1414 1411 1408 1404
1429 1433 1438 1441 1445 1448 1451 1454 1457 1458 1460 1461 1462 1463 1464 1465 1465 1465 1465 1465 1464 1463 1462 1460 1458 1456 1454 1451 1449 1447 1444 1440 1436 1433 1430 1427 1423 1419 1413 1409 1407 1404 1400